Location: TAAA CAC
(31.8680°N, 109.5150°W)
Time: 22:30:51
(UTC-07:00)

Hubble Space Telescope - Pass Details

Date: 27 February 2024
Orbit: 513 x 517 km, 28.5° (Epoch: 21 April)

Event Time Altitude Azimuth Distance (km) Brightness Sun altitude
Rises 19:57:55 0° 263° (W) 2,629 5.7 -22.8°
Reaches altitude 10° 20:00:11 10° 258° (WSW) 1,743 4.4 -23.3°
Enters shadow 20:03:36 48° 211° (SSW) 679 1.3 -24.0°
